TimeCDT,TemperatureF,Dew PointF,Humidity,Sea Level PressureIn,VisibilityMPH,Wind Direction,Wind SpeedMPH,Gust SpeedMPH,PrecipitationIn,Events,Conditions,WindDirDegrees,DateUTC
12:15 AM,51.3,49.1,92,29.80,10.0,Calm,Calm,-,N/A,Rain,Light Rain,0,2012-10-09 05:15:00
12:35 AM,51.3,48.7,91,29.81,10.0,Calm,Calm,-,N/A,,Overcast,0,2012-10-09 05:35:00
12:55 AM,50.9,49.3,94,29.81,10.0,Calm,Calm,-,N/A,Rain,Rain,0,2012-10-09 05:55:00
1:15 AM,50.4,49.1,95,29.82,10.0,South,4.6,-,0.01,,Overcast,190,2012-10-09 06:15:00
1:35 AM,49.6,48.7,97,29.82,10.0,SSW,3.5,-,0.01,,Overcast,210,2012-10-09 06:35:00
1:55 AM,49.6,49.1,98,29.82,10.0,South,3.5,-,0.01,,Overcast,190,2012-10-09 06:55:00
2:15 AM,50.0,48.6,95,29.81,10.0,South,4.6,-,N/A,,Overcast,170,2012-10-09 07:15:00
2:35 AM,49.5,48.0,95,29.82,10.0,SSW,3.5,-,N/A,,Overcast,200,2012-10-09 07:35:00
2:55 AM,48.9,48.2,97,29.81,10.0,South,4.6,-,N/A,,Overcast,180,2012-10-09 07:55:00
3:15 AM,48.9,47.5,95,29.80,10.0,South,5.8,-,N/A,,Overcast,190,2012-10-09 08:15:00
3:35 AM,47.3,46.2,96,29.80,10.0,Calm,Calm,-,N/A,,Mostly Cloudy,0,2012-10-09 08:35:00
3:55 AM,47.8,47.3,98,29.81,10.0,Calm,Calm,-,N/A,,Overcast,0,2012-10-09 08:55:00
4:15 AM,48.4,46.9,95,29.80,10.0,SSW,3.5,-,N/A,,Overcast,200,2012-10-09 09:15:00
4:35 AM,49.1,46.9,92,29.81,10.0,South,3.5,-,N/A,,Overcast,180,2012-10-09 09:35:00
4:55 AM,49.1,46.9,92,29.81,10.0,Calm,Calm,-,N/A,,Overcast,0,2012-10-09 09:55:00
5:15 AM,49.6,47.3,92,29.81,10.0,West,5.8,-,N/A,,Overcast,260,2012-10-09 10:15:00
5:35 AM,50.0,47.3,90,29.82,10.0,West,5.8,-,N/A,,Overcast,280,2012-10-09 10:35:00
5:55 AM,49.6,47.1,91,29.83,10.0,WNW,10.4,-,N/A,,Drizzle,290,2012-10-09 10:55:00
6:15 AM,49.6,47.3,92,29.84,10.0,WNW,8.1,-,N/A,Rain,Light Rain,290,2012-10-09 11:15:00
6:35 AM,49.3,46.8,91,29.84,10.0,WNW,5.8,-,N/A,,Drizzle,300,2012-10-09 11:35:00
6:55 AM,49.1,46.4,90,29.82,10.0,WNW,5.8,-,N/A,,Mostly Cloudy,300,2012-10-09 11:55:00
7:15 AM,49.1,45.7,88,29.84,10.0,WNW,5.8,-,N/A,,Overcast,290,2012-10-09 12:15:00
7:35 AM,49.3,45.3,86,29.84,10.0,WNW,13.8,19.6,N/A,,Overcast,300,2012-10-09 12:35:00
7:55 AM,49.3,45.7,87,29.85,10.0,WNW,10.4,17.3,N/A,,Overcast,300,2012-10-09 12:55:00
8:15 AM,49.1,46.2,90,29.87,10.0,WNW,10.4,16.1,N/A,,Overcast,300,2012-10-09 13:15:00
8:35 AM,49.1,46.4,90,29.88,10.0,NW,10.4,17.3,N/A,Rain,Light Rain,310,2012-10-09 13:35:00
8:55 AM,48.6,45.7,90,29.89,10.0,NW,10.4,-,N/A,,Overcast,310,2012-10-09 13:55:00
9:15 AM,48.4,44.8,87,29.90,10.0,NW,13.8,20.7,N/A,Rain,Light Rain,310,2012-10-09 14:15:00
9:35 AM,47.3,42.3,83,29.90,10.0,NW,11.5,19.6,N/A,Rain,Light Rain,310,2012-10-09 14:35:00
9:55 AM,46.6,41.7,83,29.91,10.0,NW,9.2,16.1,N/A,Rain,Rain,310,2012-10-09 14:55:00
10:15 AM,46.4,42.4,86,29.92,10.0,WNW,9.2,-,N/A,Rain,Light Rain,300,2012-10-09 15:15:00
10:35 AM,46.6,42.3,85,29.92,10.0,NW,8.1,-,N/A,,Overcast,310,2012-10-09 15:35:00
10:55 AM,47.1,40.3,77,29.92,10.0,WNW,10.4,-,N/A,,Overcast,290,2012-10-09 15:55:00
11:15 AM,47.3,39.2,73,29.93,10.0,WNW,12.7,17.3,N/A,,Overcast,290,2012-10-09 16:15:00
11:35 AM,46.9,37.9,71,29.93,10.0,NW,10.4,17.3,N/A,,Overcast,310,2012-10-09 16:35:00
11:55 AM,47.5,37.6,69,29.94,10.0,WNW,15.0,20.7,N/A,,Overcast,300,2012-10-09 16:55:00
12:15 PM,47.5,37.4,68,29.94,10.0,WNW,17.3,24.2,N/A,,Mostly Cloudy,300,2012-10-09 17:15:00
12:35 PM,47.1,31.3,54,29.94,10.0,WNW,15.0,24.2,0.01,,Scattered Clouds,300,2012-10-09 17:35:00
12:55 PM,46.9,31.1,54,29.94,10.0,WNW,15.0,20.7,0.01,,Mostly Cloudy,300,2012-10-09 17:55:00
1:15 PM,47.7,28.0,47,29.93,10.0,NW,18.4,28.8,N/A,,Scattered Clouds,310,2012-10-09 18:15:00
1:35 PM,47.8,28.0,46,29.94,10.0,WNW,16.1,24.2,N/A,,Clear,300,2012-10-09 18:35:00
1:55 PM,48.4,28.4,46,29.93,10.0,WNW,15.0,20.7,N/A,,Clear,300,2012-10-09 18:55:00
2:15 PM,49.5,28.6,45,29.93,10.0,WNW,16.1,23.0,N/A,,Clear,300,2012-10-09 19:15:00
2:35 PM,50.9,27.5,40,29.92,10.0,NW,16.1,25.3,N/A,,Scattered Clouds,310,2012-10-09 19:35:00
2:55 PM,51.1,27.5,40,29.93,10.0,WNW,19.6,27.6,N/A,,Clear,300,2012-10-09 19:55:00
3:15 PM,50.0,26.8,41,29.93,10.0,WNW,12.7,21.9,N/A,,Clear,290,2012-10-09 20:15:00
3:35 PM,51.1,27.0,39,29.93,10.0,NW,13.8,21.9,N/A,,Clear,320,2012-10-09 20:35:00
3:55 PM,51.3,26.6,38,29.94,10.0,NW,15.0,27.6,N/A,,Clear,310,2012-10-09 20:55:00
4:15 PM,50.7,26.8,40,29.94,10.0,NW,19.6,28.8,N/A,,Clear,320,2012-10-09 21:15:00
4:35 PM,48.7,28.2,45,29.95,10.0,NNW,21.9,27.6,N/A,,Clear,330,2012-10-09 21:35:00
4:55 PM,48.2,28.0,46,29.96,10.0,NW,18.4,26.5,N/A,,Clear,320,2012-10-09 21:55:00
5:15 PM,48.2,28.4,46,29.97,10.0,NW,15.0,25.3,N/A,,Clear,320,2012-10-09 22:15:00
5:35 PM,48.2,28.8,47,29.98,10.0,NNW,17.3,26.5,N/A,,Clear,330,2012-10-09 22:35:00
5:55 PM,46.6,27.5,47,30.00,10.0,NW,18.4,27.6,N/A,,Clear,320,2012-10-09 22:55:00
6:15 PM,46.0,27.5,48,30.01,10.0,NW,15.0,23.0,N/A,,Mostly Cloudy,320,2012-10-09 23:15:00
6:35 PM,45.5,28.0,51,30.02,10.0,NW,11.5,21.9,N/A,,Overcast,320,2012-10-09 23:35:00
6:55 PM,45.1,27.3,50,30.03,10.0,NW,13.8,18.4,N/A,,Overcast,320,2012-10-09 23:55:00
7:15 PM,44.2,27.7,52,30.04,10.0,NW,10.4,-,N/A,,Overcast,320,2012-10-10 00:15:00
7:35 PM,43.9,28.2,54,30.05,10.0,NW,8.1,-,N/A,,Overcast,320,2012-10-10 00:35:00
7:55 PM,43.7,28.4,55,30.05,10.0,NW,6.9,-,N/A,,Overcast,320,2012-10-10 00:55:00
8:15 PM,43.0,28.4,56,30.05,10.0,NW,5.8,-,N/A,,Overcast,310,2012-10-10 01:15:00
8:35 PM,42.8,28.4,57,30.06,10.0,NW,5.8,-,N/A,,Overcast,310,2012-10-10 01:35:00
8:55 PM,42.8,28.4,57,30.06,10.0,WNW,5.8,-,N/A,,Overcast,300,2012-10-10 01:55:00
9:15 PM,42.8,28.0,56,30.07,10.0,NW,5.8,-,N/A,,Overcast,310,2012-10-10 02:15:00
9:35 PM,40.8,28.0,60,30.07,10.0,WNW,4.6,-,N/A,,Scattered Clouds,300,2012-10-10 02:35:00
9:55 PM,39.9,27.5,61,30.08,10.0,NW,4.6,-,N/A,,Clear,310,2012-10-10 02:55:00
10:15 PM,40.5,27.1,59,30.08,10.0,NW,4.6,-,N/A,,Mostly Cloudy,320,2012-10-10 03:15:00
10:35 PM,40.1,26.6,59,30.09,10.0,NW,4.6,-,N/A,,Scattered Clouds,310,2012-10-10 03:35:00
10:55 PM,38.3,26.4,62,30.09,10.0,Calm,Calm,-,N/A,,Scattered Clouds,0,2012-10-10 03:55:00
11:15 PM,35.2,26.6,71,30.10,10.0,West,4.6,-,N/A,,Clear,280,2012-10-10 04:15:00
11:35 PM,34.5,26.2,72,30.10,10.0,West,3.5,-,N/A,,Clear,270,2012-10-10 04:35:00
11:55 PM,30.6,26.1,83,30.10,10.0,West,3.5,-,N/A,,Clear,270,2012-10-10 04:55:00